Time,TemperatureF,DewpointF,PressureIn,WindDirection,WindDirectionDegrees,WindSpeedMPH,WindSpeedGustMPH,Humidity,HourlyPrecipIn,Conditions,Clouds,dailyrainin,SoftwareType,DateUTC
2013-02-02 00:03:00,22.4,19.1,30.40,SW,225,1.0,-999.0,87,0.00,,,0.01,Wunderground v.1.15,2013-02-02 05:03:00,
2013-02-02 00:08:00,22.4,19.1,30.40,SW,225,1.0,-999.0,87,0.00,,,0.01,Wunderground v.1.15,2013-02-02 05:08:00,
2013-02-02 00:13:00,22.4,19.1,30.40,SW,225,1.0,-999.0,87,0.00,,,0.01,Wunderground v.1.15,2013-02-02 05:13:00,
2013-02-02 00:18:00,22.4,19.1,30.40,SW,225,1.0,-999.0,87,0.00,,,0.01,Wunderground v.1.15,2013-02-02 05:18:00,
2013-02-02 00:23:00,22.5,19.7,30.40,West,270,0.0,-999.0,89,0.00,,,0.01,Wunderground v.1.15,2013-02-02 05:23:00,
2013-02-02 00:28:00,22.5,19.7,30.40,West,270,0.0,-999.0,89,0.00,,,0.01,Wunderground v.1.15,2013-02-02 05:28:00,
2013-02-02 00:33:00,22.5,19.7,30.40,West,270,0.0,-999.0,89,0.00,,,0.01,Wunderground v.1.15,2013-02-02 05:33:00,
2013-02-02 00:38:00,22.4,19.6,30.39,N/A,-737280,0.0,-999.0,89,0.00,,,0.01,Wunderground v.1.15,2013-02-02 05:38:00,
2013-02-02 00:43:00,22.4,19.6,30.39,N/A,-737280,0.0,-999.0,89,0.00,,,0.01,Wunderground v.1.15,2013-02-02 05:43:00,
2013-02-02 00:48:00,22.4,19.6,30.39,N/A,-737280,0.0,-999.0,89,0.00,,,0.01,Wunderground v.1.15,2013-02-02 05:48:00,
2013-02-02 00:53:00,23.5,20.7,30.39,North,0,1.0,-999.0,89,0.00,,,0.01,Wunderground v.1.15,2013-02-02 05:53:00,
2013-02-02 00:58:00,23.5,20.7,30.39,North,0,1.0,-999.0,89,0.00,,,0.01,Wunderground v.1.15,2013-02-02 05:58:00,
2013-02-02 01:03:00,23.5,20.7,30.39,North,0,1.0,-999.0,89,0.00,,,0.01,Wunderground v.1.15,2013-02-02 06:03:00,
2013-02-02 01:08:00,23.6,20.6,30.38,North,0,0.0,-999.0,88,0.00,,,0.01,Wunderground v.1.15,2013-02-02 06:08:00,
2013-02-02 01:13:00,23.6,20.6,30.38,North,0,0.0,-999.0,88,0.00,,,0.01,Wunderground v.1.15,2013-02-02 06:13:00,
2013-02-02 01:18:00,23.6,20.6,30.38,North,0,0.0,-999.0,88,0.00,,,0.01,Wunderground v.1.15,2013-02-02 06:18:00,
2013-02-02 01:23:00,23.6,20.6,30.38,North,0,0.0,-999.0,88,0.00,,,0.01,Wunderground v.1.15,2013-02-02 06:23:00,
2013-02-02 01:28:00,23.6,20.6,30.38,North,0,0.0,-999.0,88,0.00,,,0.01,Wunderground v.1.15,2013-02-02 06:28:00,
2013-02-02 01:33:00,23.6,20.6,30.38,North,0,0.0,-999.0,88,0.00,,,0.01,Wunderground v.1.15,2013-02-02 06:33:00,
2013-02-02 01:38:00,22.9,19.9,30.37,WNW,293,0.0,-999.0,88,0.00,,,0.01,Wunderground v.1.15,2013-02-02 06:38:00,
2013-02-02 01:43:00,22.9,19.9,30.37,WNW,293,0.0,-999.0,88,0.00,,,0.01,Wunderground v.1.15,2013-02-02 06:43:00,
2013-02-02 01:48:00,22.9,19.9,30.37,WNW,293,0.0,-999.0,88,0.00,,,0.01,Wunderground v.1.15,2013-02-02 06:48:00,
2013-02-02 01:53:00,22.4,19.6,30.37,N/A,-737280,0.0,-999.0,89,0.00,,,0.01,Wunderground v.1.15,2013-02-02 06:53:00,
2013-02-02 01:58:00,22.4,19.6,30.37,N/A,-737280,0.0,-999.0,89,0.00,,,0.01,Wunderground v.1.15,2013-02-02 06:58:00,
2013-02-02 02:03:00,22.4,19.6,30.37,N/A,-737280,0.0,-999.0,89,0.00,,,0.01,Wunderground v.1.15,2013-02-02 07:03:00,
2013-02-02 02:08:00,22.2,19.7,30.36,WNW,293,0.0,-999.0,90,0.00,,,0.01,Wunderground v.1.15,2013-02-02 07:08:00,
2013-02-02 02:13:00,22.2,19.7,30.36,WNW,293,0.0,-999.0,90,0.00,,,0.01,Wunderground v.1.15,2013-02-02 07:13:00,
2013-02-02 02:18:00,22.2,19.7,30.36,WNW,293,0.0,-999.0,90,0.00,,,0.01,Wunderground v.1.15,2013-02-02 07:18:00,
2013-02-02 02:23:00,22.4,19.9,30.35,WSW,248,0.0,-999.0,90,0.00,,,0.01,Wunderground v.1.15,2013-02-02 07:23:00,
2013-02-02 02:28:00,22.4,19.9,30.35,WSW,248,0.0,-999.0,90,0.00,,,0.01,Wunderground v.1.15,2013-02-02 07:28:00,
2013-02-02 02:33:00,22.4,19.9,30.35,WSW,248,0.0,-999.0,90,0.00,,,0.01,Wunderground v.1.15,2013-02-02 07:33:00,
2013-02-02 02:38:00,22.9,20.7,30.36,WSW,248,0.0,-999.0,91,0.00,,,0.01,Wunderground v.1.15,2013-02-02 07:38:00,
2013-02-02 02:43:00,22.9,20.7,30.36,WSW,248,0.0,-999.0,91,0.00,,,0.01,Wunderground v.1.15,2013-02-02 07:43:00,
2013-02-02 02:48:00,22.9,20.7,30.36,WSW,248,0.0,-999.0,91,0.00,,,0.01,Wunderground v.1.15,2013-02-02 07:48:00,
2013-02-02 02:53:00,22.9,20.4,30.35,N/A,-737280,0.0,-999.0,90,0.00,,,0.01,Wunderground v.1.15,2013-02-02 07:53:00,
2013-02-02 02:58:00,22.9,20.4,30.35,N/A,-737280,0.0,-999.0,90,0.00,,,0.01,Wunderground v.1.15,2013-02-02 07:58:00,
2013-02-02 03:03:00,22.9,20.4,30.35,N/A,-737280,0.0,-999.0,90,0.00,,,0.01,Wunderground v.1.15,2013-02-02 08:03:00,
2013-02-02 03:08:00,22.9,20.4,30.36,N/A,-737280,0.0,-999.0,90,0.00,,,0.01,Wunderground v.1.15,2013-02-02 08:08:00,
2013-02-02 03:13:00,22.9,20.4,30.36,N/A,-737280,0.0,-999.0,90,0.00,,,0.01,Wunderground v.1.15,2013-02-02 08:13:00,
2013-02-02 03:18:00,22.9,20.4,30.36,N/A,-737280,0.0,-999.0,90,0.00,,,0.01,Wunderground v.1.15,2013-02-02 08:18:00,
2013-02-02 03:23:00,22.3,20.1,30.36,WSW,248,0.0,-999.0,91,0.00,,,0.01,Wunderground v.1.15,2013-02-02 08:23:00,
2013-02-02 03:28:00,22.3,20.1,30.36,WSW,248,0.0,-999.0,91,0.00,,,0.01,Wunderground v.1.15,2013-02-02 08:28:00,
2013-02-02 03:33:00,22.3,20.1,30.36,WSW,248,0.0,-999.0,91,0.00,,,0.01,Wunderground v.1.15,2013-02-02 08:33:00,
2013-02-02 03:38:00,22.1,19.6,30.36,SSW,203,0.0,-999.0,90,0.00,,,0.01,Wunderground v.1.15,2013-02-02 08:38:00,
2013-02-02 03:43:00,22.1,19.6,30.36,SSW,203,0.0,-999.0,90,0.00,,,0.01,Wunderground v.1.15,2013-02-02 08:43:00,
2013-02-02 03:48:00,22.1,19.6,30.36,SSW,203,0.0,-999.0,90,0.00,,,0.01,Wunderground v.1.15,2013-02-02 08:48:00,
2013-02-02 03:53:00,22.2,19.5,30.36,SW,225,1.0,-999.0,89,0.00,,,0.01,Wunderground v.1.15,2013-02-02 08:53:00,
2013-02-02 03:58:00,22.2,19.5,30.36,SW,225,1.0,-999.0,89,0.00,,,0.01,Wunderground v.1.15,2013-02-02 08:58:00,
2013-02-02 04:03:00,22.2,19.5,30.36,SW,225,1.0,-999.0,89,0.00,,,0.01,Wunderground v.1.15,2013-02-02 09:03:00,
2013-02-02 04:08:00,22.0,19.3,30.35,SW,225,0.0,-999.0,89,0.00,,,0.01,Wunderground v.1.15,2013-02-02 09:08:00,
2013-02-02 04:13:00,22.0,19.3,30.35,SW,225,0.0,-999.0,89,0.00,,,0.01,Wunderground v.1.15,2013-02-02 09:13:00,
2013-02-02 04:18:00,22.0,19.3,30.35,SW,225,0.0,-999.0,89,0.00,,,0.01,Wunderground v.1.15,2013-02-02 09:18:00,
2013-02-02 04:23:00,22.0,19.3,30.36,SW,225,0.0,-999.0,89,0.00,,,0.01,Wunderground v.1.15,2013-02-02 09:23:00,
2013-02-02 04:28:00,22.0,19.3,30.36,SW,225,0.0,-999.0,89,0.00,,,0.01,Wunderground v.1.15,2013-02-02 09:28:00,
2013-02-02 04:33:00,22.0,19.3,30.36,SW,225,0.0,-999.0,89,0.00,,,0.01,Wunderground v.1.15,2013-02-02 09:33:00,
2013-02-02 04:38:00,21.9,19.4,30.35,SW,225,0.0,-999.0,90,0.00,,,0.01,Wunderground v.1.15,2013-02-02 09:38:00,
2013-02-02 04:43:00,21.9,19.4,30.35,SW,225,0.0,-999.0,90,0.00,,,0.01,Wunderground v.1.15,2013-02-02 09:43:00,
2013-02-02 04:48:00,21.9,19.4,30.35,SW,225,0.0,-999.0,90,0.00,,,0.01,Wunderground v.1.15,2013-02-02 09:48:00,
2013-02-02 04:53:00,21.3,18.8,30.35,N/A,-737280,0.0,-999.0,90,0.00,,,0.01,Wunderground v.1.15,2013-02-02 09:53:00,
2013-02-02 04:58:00,21.3,18.8,30.35,N/A,-737280,0.0,-999.0,90,0.00,,,0.01,Wunderground v.1.15,2013-02-02 09:58:00,
2013-02-02 05:03:00,21.3,18.8,30.35,N/A,-737280,0.0,-999.0,90,0.00,,,0.01,Wunderground v.1.15,2013-02-02 10:03:00,
2013-02-02 05:08:00,21.1,18.9,30.35,SW,225,0.0,-999.0,91,0.00,,,0.01,Wunderground v.1.15,2013-02-02 10:08:00,
2013-02-02 05:13:00,21.1,18.9,30.35,SW,225,0.0,-999.0,91,0.00,,,0.01,Wunderground v.1.15,2013-02-02 10:13:00,
2013-02-02 05:18:00,21.1,18.9,30.35,SW,225,0.0,-999.0,91,0.00,,,0.01,Wunderground v.1.15,2013-02-02 10:18:00,
2013-02-02 05:23:00,21.1,19.1,30.35,WSW,248,0.0,-999.0,92,0.00,,,0.01,Wunderground v.1.15,2013-02-02 10:23:00,
2013-02-02 05:28:00,21.1,19.1,30.35,WSW,248,0.0,-999.0,92,0.00,,,0.01,Wunderground v.1.15,2013-02-02 10:28:00,
2013-02-02 05:33:00,21.1,19.1,30.35,WSW,248,0.0,-999.0,92,0.00,,,0.01,Wunderground v.1.15,2013-02-02 10:33:00,
2013-02-02 05:38:00,21.0,19.0,30.35,WSW,248,0.0,-999.0,92,0.00,,,0.01,Wunderground v.1.15,2013-02-02 10:38:00,
2013-02-02 05:43:00,21.0,19.0,30.35,WSW,248,0.0,-999.0,92,0.00,,,0.01,Wunderground v.1.15,2013-02-02 10:43:00,
2013-02-02 05:48:00,21.0,19.0,30.35,WSW,248,0.0,-999.0,92,0.00,,,0.01,Wunderground v.1.15,2013-02-02 10:48:00,
2013-02-02 05:53:00,21.0,19.0,30.35,WSW,248,0.0,-999.0,92,0.00,,,0.01,Wunderground v.1.15,2013-02-02 10:53:00,
2013-02-02 05:58:00,21.0,19.0,30.35,WSW,248,0.0,-999.0,92,0.00,,,0.01,Wunderground v.1.15,2013-02-02 10:58:00,
2013-02-02 06:03:00,21.0,19.0,30.35,WSW,248,0.0,-999.0,92,0.00,,,0.01,Wunderground v.1.15,2013-02-02 11:03:00,
2013-02-02 06:08:00,21.3,19.6,30.35,SW,225,0.0,-999.0,93,0.00,,,0.01,Wunderground v.1.15,2013-02-02 11:08:00,
2013-02-02 06:13:00,21.3,19.6,30.35,SW,225,0.0,-999.0,93,0.00,,,0.01,Wunderground v.1.15,2013-02-02 11:13:00,
2013-02-02 06:18:00,21.3,19.6,30.35,SW,225,0.0,-999.0,93,0.00,,,0.01,Wunderground v.1.15,2013-02-02 11:18:00,
2013-02-02 06:23:00,21.4,19.4,30.35,SSW,203,0.0,-999.0,92,0.00,,,0.01,Wunderground v.1.15,2013-02-02 11:23:00,
2013-02-02 06:28:00,21.4,19.4,30.35,SSW,203,0.0,-999.0,92,0.00,,,0.01,Wunderground v.1.15,2013-02-02 11:28:00,
2013-02-02 06:33:00,21.4,19.4,30.35,SSW,203,0.0,-999.0,92,0.00,,,0.01,Wunderground v.1.15,2013-02-02 11:33:00,
2013-02-02 06:38:00,21.1,19.1,30.35,SSW,203,0.0,-999.0,92,0.00,,,0.01,Wunderground v.1.15,2013-02-02 11:38:00,
2013-02-02 06:43:00,21.1,19.1,30.35,SSW,203,0.0,-999.0,92,0.00,,,0.01,Wunderground v.1.15,2013-02-02 11:43:00,
2013-02-02 06:48:00,21.1,19.1,30.35,SSW,203,0.0,-999.0,92,0.00,,,0.01,Wunderground v.1.15,2013-02-02 11:48:00,
2013-02-02 06:53:00,20.8,18.8,30.35,N/A,-737280,0.0,-999.0,92,0.00,,,0.01,Wunderground v.1.15,2013-02-02 11:53:00,
2013-02-02 06:58:00,20.8,18.8,30.35,N/A,-737280,0.0,-999.0,92,0.00,,,0.01,Wunderground v.1.15,2013-02-02 11:58:00,
2013-02-02 07:03:00,20.8,18.8,30.35,N/A,-737280,0.0,-999.0,92,0.00,,,0.01,Wunderground v.1.15,2013-02-02 12:03:00,
2013-02-02 07:08:00,21.6,19.6,30.35,SSW,203,0.0,-999.0,92,0.00,,,0.01,Wunderground v.1.15,2013-02-02 12:08:00,
2013-02-02 07:13:00,21.6,19.6,30.35,SSW,203,0.0,-999.0,92,0.00,,,0.01,Wunderground v.1.15,2013-02-02 12:13:00,
2013-02-02 07:18:00,21.6,19.6,30.35,SSW,203,0.0,-999.0,92,0.00,,,0.01,Wunderground v.1.15,2013-02-02 12:18:00,
2013-02-02 07:23:00,22.3,20.3,30.36,SSW,203,0.0,-999.0,92,0.00,,,0.01,Wunderground v.1.15,2013-02-02 12:23:00,
2013-02-02 07:28:00,22.3,20.3,30.36,SSW,203,0.0,-999.0,92,0.00,,,0.01,Wunderground v.1.15,2013-02-02 12:28:00,
2013-02-02 07:33:00,22.3,20.3,30.36,SSW,203,0.0,-999.0,92,0.00,,,0.01,Wunderground v.1.15,2013-02-02 12:33:00,
2013-02-02 07:38:00,22.8,20.6,30.34,WSW,248,0.0,-999.0,91,0.00,,,0.01,Wunderground v.1.15,2013-02-02 12:38:00,
2013-02-02 07:43:00,22.8,20.6,30.34,WSW,248,0.0,-999.0,91,0.00,,,0.01,Wunderground v.1.15,2013-02-02 12:43:00,
2013-02-02 07:48:00,22.8,20.6,30.34,WSW,248,0.0,-999.0,91,0.00,,,0.01,Wunderground v.1.15,2013-02-02 12:48:00,
2013-02-02 07:53:00,23.3,21.1,30.34,WSW,248,0.0,-999.0,91,0.00,,,0.01,Wunderground v.1.15,2013-02-02 12:53:00,
2013-02-02 07:58:00,23.3,21.1,30.34,WSW,248,0.0,-999.0,91,0.00,,,0.01,Wunderground v.1.15,2013-02-02 12:58:00,
2013-02-02 08:03:00,23.3,21.1,30.34,WSW,248,0.0,-999.0,91,0.00,,,0.01,Wunderground v.1.15,2013-02-02 13:03:00,
2013-02-02 08:08:00,23.7,21.2,30.34,WSW,248,0.0,-999.0,90,0.00,,,0.01,Wunderground v.1.15,2013-02-02 13:08:00,
2013-02-02 08:13:00,23.7,21.2,30.34,WSW,248,0.0,-999.0,90,0.00,,,0.01,Wunderground v.1.15,2013-02-02 13:13:00,
2013-02-02 08:18:00,23.7,21.2,30.34,WSW,248,0.0,-999.0,90,0.00,,,0.01,Wunderground v.1.15,2013-02-02 13:18:00,
2013-02-02 08:23:00,24.1,21.1,30.33,WSW,248,0.0,-999.0,88,0.00,,,0.01,Wunderground v.1.15,2013-02-02 13:23:00,
2013-02-02 08:28:00,24.1,21.1,30.33,WSW,248,0.0,-999.0,88,0.00,,,0.01,Wunderground v.1.15,2013-02-02 13:28:00,
2013-02-02 08:33:00,24.1,21.1,30.33,WSW,248,0.0,-999.0,88,0.00,,,0.01,Wunderground v.1.15,2013-02-02 13:33:00,
2013-02-02 08:38:00,24.7,21.4,30.33,West,270,0.0,-999.0,87,0.00,,,0.01,Wunderground v.1.15,2013-02-02 13:38:00,
2013-02-02 08:43:00,24.7,21.4,30.33,West,270,0.0,-999.0,87,0.00,,,0.01,Wunderground v.1.15,2013-02-02 13:43:00,
2013-02-02 08:48:00,24.7,21.4,30.33,West,270,0.0,-999.0,87,0.00,,,0.01,Wunderground v.1.15,2013-02-02 13:48:00,
2013-02-02 08:53:00,25.4,21.0,30.36,NNE,23,3.0,-999.0,83,0.00,,,0.01,Wunderground v.1.15,2013-02-02 13:53:00,
2013-02-02 08:58:00,25.4,21.0,30.36,NNE,23,3.0,-999.0,83,0.00,,,0.01,Wunderground v.1.15,2013-02-02 13:58:00,
2013-02-02 09:03:00,25.4,21.0,30.36,NNE,23,3.0,-999.0,83,0.00,,,0.01,Wunderground v.1.15,2013-02-02 14:03:00,
2013-02-02 09:08:00,26.8,22.6,30.37,NE,45,6.0,-999.0,84,0.00,,,0.01,Wunderground v.1.15,2013-02-02 14:08:00,
2013-02-02 09:13:00,26.8,22.6,30.37,NE,45,6.0,-999.0,84,0.00,,,0.01,Wunderground v.1.15,2013-02-02 14:13:00,
2013-02-02 09:18:00,26.8,22.6,30.37,NE,45,6.0,-999.0,84,0.00,,,0.01,Wunderground v.1.15,2013-02-02 14:18:00,
2013-02-02 09:23:00,27.6,21.9,30.39,NNE,23,4.0,-999.0,79,0.00,,,0.01,Wunderground v.1.15,2013-02-02 14:23:00,
2013-02-02 09:28:00,27.6,21.9,30.39,NNE,23,4.0,-999.0,79,0.00,,,0.01,Wunderground v.1.15,2013-02-02 14:28:00,
2013-02-02 09:33:00,27.6,21.9,30.39,NNE,23,4.0,-999.0,79,0.00,,,0.01,Wunderground v.1.15,2013-02-02 14:33:00,
2013-02-02 09:38:00,28.1,21.8,30.38,NNE,23,4.0,-999.0,77,0.00,,,0.01,Wunderground v.1.15,2013-02-02 14:38:00,
2013-02-02 09:43:00,28.1,21.8,30.38,NNE,23,4.0,-999.0,77,0.00,,,0.01,Wunderground v.1.15,2013-02-02 14:43:00,
2013-02-02 09:48:00,28.1,21.8,30.38,NNE,23,4.0,-999.0,77,0.00,,,0.01,Wunderground v.1.15,2013-02-02 14:48:00,
2013-02-02 09:53:00,28.5,22.5,30.37,SW,225,1.0,-999.0,78,0.00,,,0.01,Wunderground v.1.15,2013-02-02 14:53:00,
2013-02-02 09:58:00,28.5,22.5,30.37,SW,225,1.0,-999.0,78,0.00,,,0.01,Wunderground v.1.15,2013-02-02 14:58:00,
2013-02-02 10:03:00,28.5,22.5,30.37,SW,225,1.0,-999.0,78,0.00,,,0.01,Wunderground v.1.15,2013-02-02 15:03:00,
2013-02-02 10:08:00,28.6,22.0,30.39,WSW,248,2.0,-999.0,76,0.00,,,0.01,Wunderground v.1.15,2013-02-02 15:08:00,
2013-02-02 10:13:00,28.6,22.0,30.39,WSW,248,2.0,-999.0,76,0.00,,,0.01,Wunderground v.1.15,2013-02-02 15:13:00,
2013-02-02 10:18:00,28.6,22.0,30.39,WSW,248,2.0,-999.0,76,0.00,,,0.01,Wunderground v.1.15,2013-02-02 15:18:00,
2013-02-02 10:23:00,28.9,22.0,30.40,WNW,293,1.0,-999.0,75,0.00,,,0.01,Wunderground v.1.15,2013-02-02 15:23:00,
2013-02-02 10:28:00,28.9,22.0,30.40,WNW,293,1.0,-999.0,75,0.00,,,0.01,Wunderground v.1.15,2013-02-02 15:28:00,
2013-02-02 10:33:00,28.9,22.0,30.40,WNW,293,1.0,-999.0,75,0.00,,,0.01,Wunderground v.1.15,2013-02-02 15:33:00,
2013-02-02 10:38:00,29.2,21.9,30.38,WSW,248,2.0,-999.0,74,0.00,,,0.01,Wunderground v.1.15,2013-02-02 15:38:00,
2013-02-02 10:43:00,29.2,21.9,30.38,WSW,248,2.0,-999.0,74,0.00,,,0.01,Wunderground v.1.15,2013-02-02 15:43:00,
2013-02-02 10:48:00,29.2,21.9,30.38,WSW,248,2.0,-999.0,74,0.00,,,0.01,Wunderground v.1.15,2013-02-02 15:48:00,
2013-02-02 10:53:00,29.1,23.1,30.36,SW,225,4.0,-999.0,78,0.00,,,0.01,Wunderground v.1.15,2013-02-02 15:53:00,
2013-02-02 10:58:00,29.1,23.1,30.36,SW,225,4.0,-999.0,78,0.00,,,0.01,Wunderground v.1.15,2013-02-02 15:58:00,
2013-02-02 11:03:00,29.1,23.1,30.36,SW,225,4.0,-999.0,78,0.00,,,0.01,Wunderground v.1.15,2013-02-02 16:03:00,
2013-02-02 11:08:00,27.8,25.0,30.34,SW,225,5.0,-999.0,89,0.00,,,0.01,Wunderground v.1.15,2013-02-02 16:08:00,
2013-02-02 11:13:00,27.8,25.0,30.34,SW,225,5.0,-999.0,89,0.00,,,0.01,Wunderground v.1.15,2013-02-02 16:13:00,
2013-02-02 11:18:00,27.8,25.0,30.34,SW,225,5.0,-999.0,89,0.00,,,0.01,Wunderground v.1.15,2013-02-02 16:18:00,
2013-02-02 11:23:00,27.7,25.4,30.33,SW,225,4.0,-999.0,91,0.00,,,0.01,Wunderground v.1.15,2013-02-02 16:23:00,
2013-02-02 11:28:00,27.7,25.4,30.33,SW,225,4.0,-999.0,91,0.00,,,0.01,Wunderground v.1.15,2013-02-02 16:28:00,
2013-02-02 11:33:00,27.7,25.4,30.33,SW,225,4.0,-999.0,91,0.00,,,0.01,Wunderground v.1.15,2013-02-02 16:33:00,
2013-02-02 11:38:00,27.9,25.9,30.32,SW,225,4.0,-999.0,92,0.00,,,0.01,Wunderground v.1.15,2013-02-02 16:38:00,
2013-02-02 11:43:00,27.9,25.9,30.32,SW,225,4.0,-999.0,92,0.00,,,0.01,Wunderground v.1.15,2013-02-02 16:43:00,
2013-02-02 11:48:00,27.9,25.9,30.32,SW,225,4.0,-999.0,92,0.00,,,0.01,Wunderground v.1.15,2013-02-02 16:48:00,
2013-02-02 11:53:00,28.8,26.5,30.31,SW,225,4.0,-999.0,91,0.00,,,0.01,Wunderground v.1.15,2013-02-02 16:53:00,
2013-02-02 11:58:00,28.8,26.5,30.31,SW,225,4.0,-999.0,91,0.00,,,0.01,Wunderground v.1.15,2013-02-02 16:58:00,
2013-02-02 12:03:00,28.8,26.5,30.31,SW,225,4.0,-999.0,91,0.00,,,0.01,Wunderground v.1.15,2013-02-02 17:03:00,
2013-02-02 12:08:00,29.6,26.8,30.28,SW,225,3.0,-999.0,89,0.00,,,0.01,Wunderground v.1.15,2013-02-02 17:08:00,
2013-02-02 12:13:00,29.6,26.8,30.28,SW,225,3.0,-999.0,89,0.00,,,0.01,Wunderground v.1.15,2013-02-02 17:13:00,
2013-02-02 12:18:00,29.6,26.8,30.28,SW,225,3.0,-999.0,89,0.00,,,0.01,Wunderground v.1.15,2013-02-02 17:18:00,
2013-02-02 12:23:00,30.6,27.2,30.27,WSW,248,4.0,-999.0,87,0.00,,,0.01,Wunderground v.1.15,2013-02-02 17:23:00,
2013-02-02 12:28:00,30.6,27.2,30.27,WSW,248,4.0,-999.0,87,0.00,,,0.01,Wunderground v.1.15,2013-02-02 17:28:00,
2013-02-02 12:33:00,30.6,27.2,30.27,WSW,248,4.0,-999.0,87,0.00,,,0.01,Wunderground v.1.15,2013-02-02 17:33:00,
2013-02-02 12:38:00,32.2,27.0,30.26,WSW,248,6.0,-999.0,81,0.00,,,0.01,Wunderground v.1.15,2013-02-02 17:38:00,
2013-02-02 12:43:00,32.2,27.0,30.26,WSW,248,6.0,-999.0,81,0.00,,,0.01,Wunderground v.1.15,2013-02-02 17:43:00,
2013-02-02 12:48:00,32.2,27.0,30.26,WSW,248,6.0,-999.0,81,0.00,,,0.01,Wunderground v.1.15,2013-02-02 17:48:00,
2013-02-02 12:53:00,32.9,27.7,30.25,WSW,248,6.0,-999.0,81,0.00,,,0.01,Wunderground v.1.15,2013-02-02 17:53:00,
2013-02-02 12:58:00,32.9,27.7,30.25,WSW,248,6.0,-999.0,81,0.00,,,0.01,Wunderground v.1.15,2013-02-02 17:58:00,
2013-02-02 13:03:00,32.9,27.7,30.25,WSW,248,6.0,-999.0,81,0.00,,,0.01,Wunderground v.1.15,2013-02-02 18:03:00,
2013-02-02 13:08:00,33.7,28.8,30.23,WSW,248,7.0,-999.0,82,0.00,,,0.01,Wunderground v.1.15,2013-02-02 18:08:00,
2013-02-02 13:13:00,33.7,28.8,30.23,WSW,248,7.0,-999.0,82,0.00,,,0.01,Wunderground v.1.15,2013-02-02 18:13:00,
2013-02-02 13:18:00,33.7,28.8,30.23,WSW,248,7.0,-999.0,82,0.00,,,0.01,Wunderground v.1.15,2013-02-02 18:18:00,
2013-02-02 13:23:00,34.2,29.6,30.22,WSW,248,8.0,-999.0,83,0.00,,,0.01,Wunderground v.1.15,2013-02-02 18:23:00,
2013-02-02 13:28:00,34.2,29.6,30.22,WSW,248,8.0,-999.0,83,0.00,,,0.01,Wunderground v.1.15,2013-02-02 18:28:00,
2013-02-02 13:33:00,34.2,29.6,30.22,WSW,248,8.0,-999.0,83,0.00,,,0.01,Wunderground v.1.15,2013-02-02 18:33:00,
2013-02-02 13:38:00,34.9,30.6,30.20,WSW,248,10.0,-999.0,84,0.00,,,0.01,Wunderground v.1.15,2013-02-02 18:38:00,
2013-02-02 13:43:00,34.9,30.6,30.20,WSW,248,10.0,-999.0,84,0.00,,,0.01,Wunderground v.1.15,2013-02-02 18:43:00,
2013-02-02 13:48:00,34.9,30.6,30.20,WSW,248,10.0,-999.0,84,0.00,,,0.01,Wunderground v.1.15,2013-02-02 18:48:00,
2013-02-02 13:53:00,35.7,31.6,30.20,WSW,248,9.0,-999.0,85,0.00,,,0.01,Wunderground v.1.15,2013-02-02 18:53:00,
2013-02-02 13:58:00,35.7,31.6,30.20,WSW,248,9.0,-999.0,85,0.00,,,0.01,Wunderground v.1.15,2013-02-02 18:58:00,
2013-02-02 14:03:00,35.7,31.6,30.20,WSW,248,9.0,-999.0,85,0.00,,,0.01,Wunderground v.1.15,2013-02-02 19:03:00,
2013-02-02 14:08:00,35.9,30.6,30.19,WSW,248,9.0,-999.0,81,0.01,,,0.01,Wunderground v.1.15,2013-02-02 19:08:00,
2013-02-02 14:13:00,35.9,30.6,30.19,WSW,248,9.0,-999.0,81,0.01,,,0.01,Wunderground v.1.15,2013-02-02 19:13:00,
2013-02-02 14:18:00,35.9,30.6,30.19,WSW,248,9.0,-999.0,81,0.01,,,0.01,Wunderground v.1.15,2013-02-02 19:18:00,
2013-02-02 14:23:00,36.1,30.8,30.18,WSW,248,9.0,-999.0,81,0.01,,,0.01,Wunderground v.1.15,2013-02-02 19:23:00,
2013-02-02 14:28:00,36.1,30.8,30.18,WSW,248,9.0,-999.0,81,0.01,,,0.01,Wunderground v.1.15,2013-02-02 19:28:00,
2013-02-02 14:33:00,36.1,30.8,30.18,WSW,248,9.0,-999.0,81,0.01,,,0.01,Wunderground v.1.15,2013-02-02 19:33:00,
2013-02-02 14:38:00,36.4,31.1,30.17,WSW,248,10.0,-999.0,81,0.01,,,0.01,Wunderground v.1.15,2013-02-02 19:38:00,
2013-02-02 14:43:00,36.4,31.1,30.17,WSW,248,10.0,-999.0,81,0.01,,,0.01,Wunderground v.1.15,2013-02-02 19:43:00,
2013-02-02 14:48:00,36.4,31.1,30.17,WSW,248,10.0,-999.0,81,0.01,,,0.01,Wunderground v.1.15,2013-02-02 19:48:00,
2013-02-02 14:53:00,36.7,31.1,30.18,WSW,248,9.0,-999.0,80,0.01,,,0.01,Wunderground v.1.15,2013-02-02 19:53:00,
2013-02-02 14:58:00,36.7,31.1,30.18,WSW,248,9.0,-999.0,80,0.01,,,0.01,Wunderground v.1.15,2013-02-02 19:58:00,
2013-02-02 15:03:00,36.7,31.1,30.18,WSW,248,9.0,-999.0,80,0.01,,,0.01,Wunderground v.1.15,2013-02-02 20:03:00,
2013-02-02 15:08:00,37.0,30.5,30.16,WSW,248,9.0,-999.0,77,0.00,,,0.01,Wunderground v.1.15,2013-02-02 20:08:00,
2013-02-02 15:13:00,37.0,30.5,30.16,WSW,248,9.0,-999.0,77,0.00,,,0.01,Wunderground v.1.15,2013-02-02 20:13:00,
2013-02-02 15:18:00,37.0,30.5,30.16,WSW,248,9.0,-999.0,77,0.00,,,0.01,Wunderground v.1.15,2013-02-02 20:18:00,
2013-02-02 15:23:00,36.8,29.6,30.16,SW,225,9.0,-999.0,75,0.00,,,0.01,Wunderground v.1.15,2013-02-02 20:23:00,
2013-02-02 15:28:00,36.8,29.6,30.16,SW,225,9.0,-999.0,75,0.00,,,0.01,Wunderground v.1.15,2013-02-02 20:28:00,
2013-02-02 15:33:00,36.8,29.6,30.16,SW,225,9.0,-999.0,75,0.00,,,0.01,Wunderground v.1.15,2013-02-02 20:33:00,
2013-02-02 15:38:00,36.7,29.8,30.15,SW,225,9.0,-999.0,76,0.00,,,0.01,Wunderground v.1.15,2013-02-02 20:38:00,
2013-02-02 15:43:00,36.7,29.8,30.15,SW,225,9.0,-999.0,76,0.00,,,0.01,Wunderground v.1.15,2013-02-02 20:43:00,
2013-02-02 15:48:00,36.7,29.8,30.15,SW,225,9.0,-999.0,76,0.00,,,0.01,Wunderground v.1.15,2013-02-02 20:48:00,
2013-02-02 15:53:00,36.7,29.5,30.14,WSW,248,9.0,-999.0,75,0.00,,,0.01,Wunderground v.1.15,2013-02-02 20:53:00,
2013-02-02 15:58:00,36.7,29.5,30.14,WSW,248,9.0,-999.0,75,0.00,,,0.01,Wunderground v.1.15,2013-02-02 20:58:00,
2013-02-02 16:03:00,36.7,29.5,30.14,WSW,248,9.0,-999.0,75,0.00,,,0.01,Wunderground v.1.15,2013-02-02 21:03:00,
2013-02-02 16:08:00,36.6,29.1,30.15,WSW,248,10.0,-999.0,74,0.00,,,0.01,Wunderground v.1.15,2013-02-02 21:08:00,
2013-02-02 16:13:00,36.6,29.1,30.15,WSW,248,10.0,-999.0,74,0.00,,,0.01,Wunderground v.1.15,2013-02-02 21:13:00,
2013-02-02 16:18:00,36.6,29.1,30.15,WSW,248,10.0,-999.0,74,0.00,,,0.01,Wunderground v.1.15,2013-02-02 21:18:00,
2013-02-02 16:23:00,36.6,29.1,30.15,WSW,248,10.0,-999.0,74,0.00,,,0.01,Wunderground v.1.15,2013-02-02 21:23:00,
2013-02-02 16:28:00,36.6,29.1,30.15,WSW,248,10.0,-999.0,74,0.00,,,0.01,Wunderground v.1.15,2013-02-02 21:28:00,
2013-02-02 16:33:00,36.6,29.1,30.15,WSW,248,10.0,-999.0,74,0.00,,,0.01,Wunderground v.1.15,2013-02-02 21:33:00,
2013-02-02 16:38:00,36.7,29.5,30.15,WSW,248,8.0,-999.0,75,0.00,,,0.01,Wunderground v.1.15,2013-02-02 21:38:00,
2013-02-02 16:43:00,36.7,29.5,30.15,WSW,248,8.0,-999.0,75,0.00,,,0.01,Wunderground v.1.15,2013-02-02 21:43:00,
2013-02-02 16:48:00,36.7,29.5,30.15,WSW,248,8.0,-999.0,75,0.00,,,0.01,Wunderground v.1.15,2013-02-02 21:48:00,
2013-02-02 16:53:00,36.5,29.7,30.15,WSW,248,9.0,-999.0,76,0.00,,,0.01,Wunderground v.1.15,2013-02-02 21:53:00,
2013-02-02 16:58:00,36.5,29.7,30.15,WSW,248,9.0,-999.0,76,0.00,,,0.01,Wunderground v.1.15,2013-02-02 21:58:00,
2013-02-02 17:03:00,36.5,29.7,30.15,WSW,248,9.0,-999.0,76,0.00,,,0.01,Wunderground v.1.15,2013-02-02 22:03:00,
2013-02-02 17:08:00,36.5,29.7,30.14,WSW,248,8.0,-999.0,76,0.00,,,0.01,Wunderground v.1.15,2013-02-02 22:08:00,
2013-02-02 17:13:00,36.5,29.7,30.14,WSW,248,8.0,-999.0,76,0.00,,,0.01,Wunderground v.1.15,2013-02-02 22:13:00,
2013-02-02 17:18:00,36.5,29.7,30.14,WSW,248,8.0,-999.0,76,0.00,,,0.01,Wunderground v.1.15,2013-02-02 22:18:00,
2013-02-02 17:23:00,36.4,29.6,30.14,SW,225,8.0,-999.0,76,0.00,,,0.01,Wunderground v.1.15,2013-02-02 22:23:00,
2013-02-02 17:28:00,36.4,29.6,30.14,SW,225,8.0,-999.0,76,0.00,,,0.01,Wunderground v.1.15,2013-02-02 22:28:00,
2013-02-02 17:33:00,36.4,29.6,30.14,SW,225,8.0,-999.0,76,0.00,,,0.01,Wunderground v.1.15,2013-02-02 22:33:00,
2013-02-02 17:38:00,36.7,29.8,30.13,SW,225,7.0,-999.0,76,0.00,,,0.01,Wunderground v.1.15,2013-02-02 22:38:00,
2013-02-02 17:43:00,36.7,29.8,30.13,SW,225,7.0,-999.0,76,0.00,,,0.01,Wunderground v.1.15,2013-02-02 22:43:00,
2013-02-02 17:48:00,36.7,29.8,30.13,SW,225,7.0,-999.0,76,0.00,,,0.01,Wunderground v.1.15,2013-02-02 22:48:00,
2013-02-02 17:53:00,36.5,29.3,30.13,SW,225,8.0,-999.0,75,0.00,,,0.01,Wunderground v.1.15,2013-02-02 22:53:00,
2013-02-02 17:58:00,36.5,29.3,30.13,SW,225,8.0,-999.0,75,0.00,,,0.01,Wunderground v.1.15,2013-02-02 22:58:00,
2013-02-02 18:03:00,36.5,29.3,30.13,SW,225,8.0,-999.0,75,0.00,,,0.01,Wunderground v.1.15,2013-02-02 23:03:00,
2013-02-02 18:08:00,36.2,29.4,30.14,SW,225,6.0,-999.0,76,0.00,,,0.01,Wunderground v.1.15,2013-02-02 23:08:00,
2013-02-02 18:13:00,36.2,29.4,30.14,SW,225,6.0,-999.0,76,0.00,,,0.01,Wunderground v.1.15,2013-02-02 23:13:00,
2013-02-02 18:18:00,36.2,29.4,30.14,SW,225,6.0,-999.0,76,0.00,,,0.01,Wunderground v.1.15,2013-02-02 23:18:00,
2013-02-02 18:23:00,36.0,29.5,30.15,SW,225,6.0,-999.0,77,0.00,,,0.01,Wunderground v.1.15,2013-02-02 23:23:00,
2013-02-02 18:28:00,36.0,29.5,30.15,SW,225,6.0,-999.0,77,0.00,,,0.01,Wunderground v.1.15,2013-02-02 23:28:00,
2013-02-02 18:33:00,36.0,29.5,30.15,SW,225,6.0,-999.0,77,0.00,,,0.01,Wunderground v.1.15,2013-02-02 23:33:00,
2013-02-02 18:38:00,36.0,30.1,30.14,SW,225,7.0,-999.0,79,0.00,,,0.01,Wunderground v.1.15,2013-02-02 23:38:00,
2013-02-02 18:43:00,36.0,30.1,30.14,SW,225,7.0,-999.0,79,0.00,,,0.01,Wunderground v.1.15,2013-02-02 23:43:00,
2013-02-02 18:48:00,36.0,30.1,30.14,SW,225,7.0,-999.0,79,0.00,,,0.01,Wunderground v.1.15,2013-02-02 23:48:00,
2013-02-02 18:53:00,36.2,30.9,30.14,SW,225,8.0,-999.0,81,0.00,,,0.01,Wunderground v.1.15,2013-02-02 23:53:00,
2013-02-02 18:58:00,36.2,30.9,30.14,SW,225,8.0,-999.0,81,0.00,,,0.01,Wunderground v.1.15,2013-02-02 23:58:00,
2013-02-02 19:03:00,36.2,30.9,30.14,SW,225,8.0,-999.0,81,0.00,,,0.01,Wunderground v.1.15,2013-02-03 00:03:00,
2013-02-02 19:08:00,36.1,31.1,30.14,SW,225,6.0,-999.0,82,0.00,,,0.01,Wunderground v.1.15,2013-02-03 00:08:00,
2013-02-02 19:13:00,36.1,31.1,30.14,SW,225,6.0,-999.0,82,0.00,,,0.01,Wunderground v.1.15,2013-02-03 00:13:00,
2013-02-02 19:18:00,36.1,31.1,30.14,SW,225,6.0,-999.0,82,0.00,,,0.01,Wunderground v.1.15,2013-02-03 00:18:00,
2013-02-02 19:23:00,36.2,31.5,30.14,SW,225,5.0,-999.0,83,0.00,,,0.01,Wunderground v.1.15,2013-02-03 00:23:00,
2013-02-02 19:28:00,36.2,31.5,30.14,SW,225,5.0,-999.0,83,0.00,,,0.01,Wunderground v.1.15,2013-02-03 00:28:00,
2013-02-02 19:33:00,36.2,31.5,30.14,SW,225,5.0,-999.0,83,0.00,,,0.01,Wunderground v.1.15,2013-02-03 00:33:00,
2013-02-02 19:38:00,36.4,32.0,30.14,SW,225,3.0,-999.0,84,0.00,,,0.01,Wunderground v.1.15,2013-02-03 00:38:00,
2013-02-02 19:43:00,36.4,32.0,30.14,SW,225,3.0,-999.0,84,0.00,,,0.01,Wunderground v.1.15,2013-02-03 00:43:00,
2013-02-02 19:48:00,36.4,32.0,30.14,SW,225,3.0,-999.0,84,0.00,,,0.01,Wunderground v.1.15,2013-02-03 00:48:00,
2013-02-02 19:53:00,36.5,32.7,30.14,SW,225,6.0,-999.0,86,0.00,,,0.01,Wunderground v.1.15,2013-02-03 00:53:00,
2013-02-02 19:58:00,36.5,32.7,30.14,SW,225,6.0,-999.0,86,0.00,,,0.01,Wunderground v.1.15,2013-02-03 00:58:00,
2013-02-02 20:03:00,36.5,32.7,30.14,SW,225,6.0,-999.0,86,0.00,,,0.01,Wunderground v.1.15,2013-02-03 01:03:00,
2013-02-02 20:08:00,36.4,33.2,30.15,WSW,248,5.0,-999.0,88,0.00,,,0.01,Wunderground v.1.15,2013-02-03 01:08:00,
2013-02-02 20:13:00,36.4,33.2,30.15,WSW,248,5.0,-999.0,88,0.00,,,0.01,Wunderground v.1.15,2013-02-03 01:13:00,
2013-02-02 20:18:00,36.4,33.2,30.15,WSW,248,5.0,-999.0,88,0.00,,,0.01,Wunderground v.1.15,2013-02-03 01:18:00,
2013-02-02 20:23:00,36.5,33.3,30.15,WSW,248,4.0,-999.0,88,0.00,,,0.01,Wunderground v.1.15,2013-02-03 01:23:00,
2013-02-02 20:28:00,36.5,33.3,30.15,WSW,248,4.0,-999.0,88,0.00,,,0.01,Wunderground v.1.15,2013-02-03 01:28:00,
2013-02-02 20:33:00,36.5,33.3,30.15,WSW,248,4.0,-999.0,88,0.00,,,0.01,Wunderground v.1.15,2013-02-03 01:33:00,
2013-02-02 20:38:00,36.4,33.5,30.15,WSW,248,5.0,-999.0,89,0.00,,,0.01,Wunderground v.1.15,2013-02-03 01:38:00,
2013-02-02 20:43:00,36.4,33.5,30.15,WSW,248,5.0,-999.0,89,0.00,,,0.01,Wunderground v.1.15,2013-02-03 01:43:00,
2013-02-02 20:48:00,36.4,33.5,30.15,WSW,248,5.0,-999.0,89,0.00,,,0.01,Wunderground v.1.15,2013-02-03 01:48:00,
2013-02-02 20:53:00,36.4,33.7,30.16,WSW,248,4.0,-999.0,90,0.00,,,0.01,Wunderground v.1.15,2013-02-03 01:53:00,
2013-02-02 20:58:00,36.4,33.7,30.16,WSW,248,4.0,-999.0,90,0.00,,,0.01,Wunderground v.1.15,2013-02-03 01:58:00,
2013-02-02 21:03:00,36.4,33.7,30.16,WSW,248,4.0,-999.0,90,0.00,,,0.01,Wunderground v.1.15,2013-02-03 02:03:00,
2013-02-02 21:08:00,36.2,33.5,30.16,WSW,248,2.0,-999.0,90,0.00,,,0.01,Wunderground v.1.15,2013-02-03 02:08:00,
2013-02-02 21:13:00,36.2,33.5,30.16,WSW,248,2.0,-999.0,90,0.00,,,0.01,Wunderground v.1.15,2013-02-03 02:13:00,
2013-02-02 21:18:00,36.2,33.5,30.16,WSW,248,2.0,-999.0,90,0.00,,,0.01,Wunderground v.1.15,2013-02-03 02:18:00,
2013-02-02 21:23:00,36.1,33.7,30.16,SW,225,3.0,-999.0,91,0.00,,,0.01,Wunderground v.1.15,2013-02-03 02:23:00,
2013-02-02 21:28:00,36.1,33.7,30.16,SW,225,3.0,-999.0,91,0.00,,,0.01,Wunderground v.1.15,2013-02-03 02:28:00,
2013-02-02 21:33:00,36.1,33.7,30.16,SW,225,3.0,-999.0,91,0.00,,,0.01,Wunderground v.1.15,2013-02-03 02:33:00,
2013-02-02 21:38:00,36.2,34.1,30.15,WSW,248,3.0,-999.0,92,0.00,,,0.01,Wunderground v.1.15,2013-02-03 02:38:00,
2013-02-02 21:43:00,36.2,34.1,30.15,WSW,248,3.0,-999.0,92,0.00,,,0.01,Wunderground v.1.15,2013-02-03 02:43:00,
2013-02-02 21:48:00,36.2,34.1,30.15,WSW,248,3.0,-999.0,92,0.00,,,0.01,Wunderground v.1.15,2013-02-03 02:48:00,
2013-02-02 21:53:00,35.6,33.2,30.15,SW,225,4.0,-999.0,91,0.00,,,0.01,Wunderground v.1.15,2013-02-03 02:53:00,
2013-02-02 21:58:00,35.6,33.2,30.15,SW,225,4.0,-999.0,91,0.00,,,0.01,Wunderground v.1.15,2013-02-03 02:58:00,
2013-02-02 22:03:00,35.6,33.2,30.15,SW,225,4.0,-999.0,91,0.00,,,0.01,Wunderground v.1.15,2013-02-03 03:03:00,
2013-02-02 22:08:00,35.2,33.4,30.16,WSW,248,4.0,-999.0,93,0.00,,,0.01,Wunderground v.1.15,2013-02-03 03:08:00,
2013-02-02 22:13:00,35.2,33.4,30.16,WSW,248,4.0,-999.0,93,0.00,,,0.01,Wunderground v.1.15,2013-02-03 03:13:00,
2013-02-02 22:18:00,35.2,33.4,30.16,WSW,248,4.0,-999.0,93,0.00,,,0.01,Wunderground v.1.15,2013-02-03 03:18:00,
2013-02-02 22:23:00,34.9,33.3,30.16,WSW,248,5.0,-999.0,94,0.00,,,0.01,Wunderground v.1.15,2013-02-03 03:23:00,
2013-02-02 22:28:00,34.9,33.3,30.16,WSW,248,5.0,-999.0,94,0.00,,,0.01,Wunderground v.1.15,2013-02-03 03:28:00,
2013-02-02 22:33:00,34.9,33.3,30.16,WSW,248,5.0,-999.0,94,0.00,,,0.01,Wunderground v.1.15,2013-02-03 03:33:00,
2013-02-02 22:38:00,34.8,33.2,30.16,WSW,248,4.0,-999.0,94,0.00,,,0.01,Wunderground v.1.15,2013-02-03 03:38:00,
2013-02-02 22:43:00,34.8,33.2,30.16,WSW,248,4.0,-999.0,94,0.00,,,0.01,Wunderground v.1.15,2013-02-03 03:43:00,
2013-02-02 22:48:00,34.8,33.2,30.16,WSW,248,4.0,-999.0,94,0.00,,,0.01,Wunderground v.1.15,2013-02-03 03:48:00,
2013-02-02 22:53:00,35.7,34.4,30.16,WSW,248,5.0,-999.0,95,0.00,,,0.01,Wunderground v.1.15,2013-02-03 03:53:00,
2013-02-02 22:58:00,35.7,34.4,30.16,WSW,248,5.0,-999.0,95,0.00,,,0.01,Wunderground v.1.15,2013-02-03 03:58:00,
2013-02-02 23:03:00,35.7,34.4,30.16,WSW,248,5.0,-999.0,95,0.00,,,0.01,Wunderground v.1.15,2013-02-03 04:03:00,
2013-02-02 23:08:00,35.8,34.0,30.16,WSW,248,5.0,-999.0,93,0.00,,,0.01,Wunderground v.1.15,2013-02-03 04:08:00,
2013-02-02 23:13:00,35.8,34.0,30.16,WSW,248,5.0,-999.0,93,0.00,,,0.01,Wunderground v.1.15,2013-02-03 04:13:00,
2013-02-02 23:18:00,35.8,34.0,30.16,WSW,248,5.0,-999.0,93,0.00,,,0.01,Wunderground v.1.15,2013-02-03 04:18:00,
2013-02-02 23:23:00,35.0,33.4,30.16,WSW,248,2.0,-999.0,94,0.00,,,0.01,Wunderground v.1.15,2013-02-03 04:23:00,
2013-02-02 23:28:00,35.0,33.4,30.16,WSW,248,2.0,-999.0,94,0.00,,,0.01,Wunderground v.1.15,2013-02-03 04:28:00,
2013-02-02 23:33:00,35.0,33.4,30.16,WSW,248,2.0,-999.0,94,0.00,,,0.01,Wunderground v.1.15,2013-02-03 04:33:00,
2013-02-02 23:38:00,34.9,33.6,30.16,WSW,248,2.0,-999.0,95,0.00,,,0.01,Wunderground v.1.15,2013-02-03 04:38:00,
2013-02-02 23:43:00,34.9,33.6,30.16,WSW,248,2.0,-999.0,95,0.00,,,0.01,Wunderground v.1.15,2013-02-03 04:43:00,
2013-02-02 23:48:00,34.9,33.6,30.16,WSW,248,2.0,-999.0,95,0.00,,,0.01,Wunderground v.1.15,2013-02-03 04:48:00,
2013-02-02 23:53:00,35.0,33.7,30.16,SW,225,2.0,-999.0,95,0.00,,,0.01,Wunderground v.1.15,2013-02-03 04:53:00,
2013-02-02 23:58:00,35.0,33.7,30.16,SW,225,2.0,-999.0,95,0.00,,,0.01,Wunderground v.1.15,2013-02-03 04:58:00,